Regional Weather Roundup
Issued by NWS

Home | Current Version | Previous Version | Text Only | Print | Product List | Glossary Off
Versions: 1 2 3 4 5 6 7 8 9 10 11 12 13 14 15 16 17 18 19 20 21 22 23 24 25 26 27

000
ASUS45 KTFX 240910
RWRMT
MONTANA REGIONAL WEATHER ROUNDUP
NATIONAL WEATHER SERVICE GREAT FALLS MT
300 AM MDT MON JUL 24 2017

NOTE: "FAIR" INDICATES FEW OR NO CLOUDS BELOW 12000 FEET WITH NO
SIGNIFICANT WEATHER AND/OR OBSTRUCTIONS TO VISIBILITY.

MTZ001>007-043-241000-
WEST OF THE DIVIDE

CITY           SKY/WX    TMP DP  RH WIND       PRES   REMARKS
KALISPELL      CLEAR     61  49  64 CALM      29.85R
MISSOULA       PTCLDY    63  46  54 VRB3      29.91R
BUTTE          CLEAR     58  42  55 CALM      30.06R
MULLAN PASS    CLEAR     62  41  46 VRB3      30.07S
ANACONDA         N/A     63  43  48 SW8       30.01S
DEER LODGE       N/A     61  46  59 SE5       30.01R
EUREKA           N/A     72  46  40 MISG      29.83R
LIBBY            N/A     66  46  48 SE3       29.81R
PLAINS           N/A     60  50  69 CALM      29.88
$$

MTZ008-052>055-241000-
SOUTHWEST MONTANA

CITY           SKY/WX    TMP DP  RH WIND       PRES   REMARKS
BOZEMAN        CLEAR     58  44  60 S8        29.95S
DILLON         CLEAR     61  40  45 SW10      30.00S
W YELLOWSTONE  CLEAR     45  36  70 CALM      30.15S
ENNIS          PTCLDY    63  36  36 CALM      30.06R
THREE FORKS      N/A     56  45  66 CALM      29.93S
TWIN BRIDGES     N/A     62  32  32 CALM      29.98
$$

MTZ009-010-012-014-046-048-049-054-241000-
EAST SLOPES AND CENTRAL MONTANA

CITY           SKY/WX    TMP DP  RH WIND       PRES   REMARKS
CUT BANK       MOCLDY    53  46  77 N23G35    29.97R
GREAT FALLS    PTCLDY    69  40  34 SW13      29.83R
MALMSTROM AFB  PTCLDY    74  41  30 SW10      29.83R
HELENA         CLEAR     77  40  26 S8        29.91S
CHOTEAU          N/A     70  43  37 NW10      29.89R
CONRAD           N/A     59  53  80 NW14      29.94R
$$

MTZ011-013-016-021-045-047-050-051-241000-
NORTH CENTRAL MONTANA

CITY           SKY/WX    TMP DP  RH WIND       PRES   REMARKS
HAVRE          CLEAR     70  50  49 NW23G32   29.78R
LEWISTOWN      CLEAR     68  37  32 CALM      29.87R
N BAR RANCH      N/A     66  36  32 CALM      29.89F
CHINOOK          N/A     64  52  63 NW3       29.69F
$$

MTZ017>020-022>027-061-062-241000-
NORTHEAST MONTANA

CITY           SKY/WX    TMP DP  RH WIND       PRES   REMARKS
GLASGOW        CLEAR     73  46  38 SE13      29.68F
JORDAN           N/A     74  43  32 VRB3      29.73S
SIDNEY         CLEAR     71  55  56 S8        29.79F
WOLF POINT     CLEAR     78  48  34 VRB5      29.72S
MALTA          PTCLDY    70  39  32 W6G18     29.66R
PLENTYWOOD       N/A     70  54  56 CALM      29.77F
POPLAR           N/A     75  50  41 SE6       29.74S
SCOBEY           N/A     73  46  38 SE7       29.74
$$

MTZ028>42-056>058-241000-
SOUTHCENTRAL AND SOUTHEAST MONTANA

CITY           SKY/WX    TMP DP  RH WIND       PRES   REMARKS
BAKER          CLOUDY    73  48  41 SE17G30   29.85F
BILLINGS       CLEAR     75  37  25 SW15      29.82F
LIVINGSTON     CLEAR     61  38  42 NW13      29.94R
MILES CITY     CLEAR     77  44  30 SE6       29.77F
BIG TIMBER     CLEAR     64  37  36 W8        29.93S
EKALAKA          N/A     79  42  26 SE22      29.86F
FORSYTH          N/A     81  45  28 S8        29.77S
LAUREL           N/A     63  40  42 SW2       29.84R
$$

REGIONAL REPORTS...DAKOTAS

CITY           SKY/WX    TMP DP  RH WIND       PRES   REMARKS
WILLISTON      CLEAR     75  55  49 S12G20    29.81F
MINOT          CLEAR     69  56  62 SE8       29.85F
DICKINSON      CLOUDY    67  54  63 S18       29.90S
BEACH            N/A     70  52  52 SE21G26   29.87F
CROSBY           N/A     70  55  60 S16G23    29.79S
WATFORD CITY     N/A     73  54  49 S16G26    29.83F
BISMARCK       PTCLDY    66  61  84 S10       29.94F
GRAND FORKS    CLEAR     61  61 100 S6        29.95F
BUFFALO SD       N/A     78  51  38 SW46G54   29.87F
RAPID CITY     MOCLDY    71  51  49 N8        29.97R
$$

REGIONAL REPORTS...WYOMING/IDAHO/WASHINGTON

CITY           SKY/WX    TMP DP  RH WIND       PRES   REMARKS
GILLETTE       CLEAR     63  54  72 N3        29.94F
SHERIDAN       CLEAR     73  48  41 SE10      29.90F
BUFFALO WY     CLEAR     65  41  41 W8        30.00F
CODY           CLEAR     70  37  29 S6        29.99F
YELLOWSTONE LA   N/A     42  37  82 NW3       30.27F
IDAHO FALLS    CLEAR     70  43  37 S12       30.01S
BOISE          MOCLDY    76  39  26 E9        29.89R
SPOKANE        CLEAR     70  38  31 N9        29.89R
$$

REGIONAL REPORTS...ALBERTA

CITY           SKY/WX    TMP DP  RH WIND       PRES   REMARKS
EDMONTON       LGT RAIN  50  48  93 W14G21    29.89R
CALGARY        PTCLDY    45  39  81 N7        29.97F
LETHBRIDGE     MOCLDY    52  43  71 NW16G22   29.99R
MEDICINE HAT   CLOUDY    57  46  67 NW17G36   29.89R
WATERTON GATE    N/A     50  43  76 SE5         N/A
CARDSTON         N/A     48  41  76 NW6         N/A
MILK RIVER       N/A     50  45  81 N21G26      N/A
ONEFOUR          N/A     59  52  77 NW40G51     N/A
$$

REGIONAL REPORTS...SASKATCHEWAN

CITY           SKY/WX    TMP DP  RH WIND       PRES   REMARKS
SWIFT CURRENT  CLEAR     70  48  46 S12       29.63F
REGINA         CLEAR     64  55  72 SE17      29.68F
SASKATOON      MOCLDY    68  61  77 NE9       29.57F
VAL MARIE        N/A     57  43  58 NW5         N/A
ROCKGLEN         N/A     70  45  40 S17         N/A
$$




USA.gov is the U.S. government's official web portal to all federal, state and local government web resources and services.